Hourly Data Report for March 08, 2012

All times are specified in Local Standard Time (LST). Add 1 hour to adjust for Daylight Saving Time where and when it is observed.

MIRAMICHI RCS
NEW BRUNSWICK

47°00'34.000" N
65°27'54.000" W
33.00 m
8100989
71744
ACQ

Download Data

Hourly Data (March 2012)
Hourly Data Report for March 8, 2012
TIME Temp Definition
°C
Dew Point Temp Definition
°C
Rel Hum Definition
%
Wind Dir Definition
10's deg

Wind Spd Definition
km/h
Visibility Definition
km
Stn Press Definition
kPa
Hmdx Definition


Wind Chill Definition


Weather Definition


00:00 3.0 1.0 87 22 28   101.21     LegendNANA
01:00 2.9 0.9 87 23 24   101.17     LegendNANA
02:00 2.9 0.8 86 22 26   101.07     LegendNANA
03:00 2.6 0.3 85 23 28   100.97     LegendNANA
04:00 2.9 -0.1 81 23 26   100.89     LegendNANA
05:00 2.4 -0.2 83 23 19   100.86     LegendNANA
06:00 2.1 -0.4 83 23 15   100.80     LegendNANA
07:00 2.0 -0.6 83 22 17   100.77     LegendNANA
08:00 4.6 -0.2 71 23 19   100.70     LegendNANA
09:00 6.1 -0.2 64 23 28   100.63     LegendNANA
10:00 8.8 -0.3 53 23 28   100.56     LegendNANA
11:00 11.0 -0.2 46 23 28   100.49     LegendNANA
12:00 13.5 -0.2 39 23 33   100.38     LegendNANA
13:00 15.5 0.3 35 23 35   100.23     LegendNANA
14:00 16.7 0.9 34 23 30   100.12     LegendNANA
15:00 16.4 1.2 36 23 30   99.97     LegendNANA
16:00 15.5 1.8 40 20 24   99.88     LegendNANA
17:00 13.3 2.4 48 21 26   99.86     LegendNANA
18:00 12.1 3.1 54 21 26   99.86     LegendNANA
19:00 11.0 3.9 62 22 26   99.89     LegendNANA
20:00 10.0 4.1 67 22 37   99.83     LegendNANA
21:00 9.1 4.4 72 22 30   99.77     LegendNANA
22:00 8.4 4.8 78 22 33   99.55     LegendNANA
23:00 8.3 4.1 75 22 33   99.57     LegendNANA

Notes on Data Quality.

Legend

  • E = Estimated
  • M = Missing
  • NA = Not Available
Date modified: